TimeHST,TemperatureF,Dew PointF,Humidity,Sea Level PressureIn,VisibilityMPH,Wind Direction,Wind SpeedMPH,Gust SpeedMPH,PrecipitationIn,Events,Conditions,WindDirDegrees,DateUTC
12:17 AM,73.4,64.4,73,29.99,10.0,ESE,8.1,-,N/A,,Overcast,110,2012-12-28 10:17:00
12:26 AM,73.4,64.4,73,29.99,10.0,ESE,6.9,-,N/A,,Overcast,120,2012-12-28 10:26:00
12:36 AM,71.6,64.4,78,29.98,10.0,SSE,4.6,-,N/A,,Overcast,150,2012-12-28 10:36:00
12:53 AM,70.0,64.0,81,29.98,10.0,WSW,3.5,-,N/A,,Overcast,240,2012-12-28 10:53:00
1:38 AM,71.6,64.4,78,29.98,10.0,Calm,Calm,-,N/A,,Overcast,0,2012-12-28 11:38:00
1:53 AM,70.0,64.0,81,29.97,10.0,Calm,Calm,-,N/A,,Overcast,0,2012-12-28 11:53:00
2:06 AM,69.8,62.6,78,29.98,10.0,West,3.5,-,N/A,,Scattered Clouds,260,2012-12-28 12:06:00
2:53 AM,66.9,63.0,87,29.97,10.0,West,8.1,-,N/A,,Clear,260,2012-12-28 12:53:00
3:53 AM,66.0,63.0,90,29.96,10.0,West,4.6,-,N/A,,Clear,260,2012-12-28 13:53:00
4:53 AM,66.0,63.0,90,29.95,10.0,West,4.6,-,N/A,,Partly Cloudy,260,2012-12-28 14:53:00
5:53 AM,64.9,62.1,90,29.94,10.0,West,6.9,-,N/A,,Clear,280,2012-12-28 15:53:00
6:53 AM,66.0,62.1,87,29.96,10.0,West,4.6,-,N/A,,Partly Cloudy,270,2012-12-28 16:53:00
7:53 AM,64.9,62.1,90,29.98,10.0,WSW,6.9,-,N/A,,Clear,240,2012-12-28 17:53:00
7:54 AM,64.4,62.6,94,29.98,10.0,WSW,6.9,-,N/A,,Partly Cloudy,240,2012-12-28 17:54:00
8:53 AM,71.1,64.9,81,30.00,10.0,West,4.6,-,N/A,,Partly Cloudy,270,2012-12-28 18:53:00
9:53 AM,75.0,64.0,69,30.01,10.0,SSE,6.9,-,N/A,,Clear,160,2012-12-28 19:53:00
10:53 AM,77.0,66.0,69,30.01,10.0,SE,8.1,-,N/A,,Partly Cloudy,130,2012-12-28 20:53:00
11:53 AM,77.0,64.9,66,29.99,10.0,SSE,10.4,-,N/A,,Clear,160,2012-12-28 21:53:00
12:53 PM,77.0,66.0,69,29.95,10.0,SSE,13.8,-,N/A,,Mostly Cloudy,160,2012-12-28 22:53:00
1:53 PM,78.1,66.0,66,29.92,10.0,South,13.8,-,N/A,,Mostly Cloudy,180,2012-12-28 23:53:00
2:53 PM,77.0,66.0,69,29.91,10.0,South,12.7,-,N/A,,Partly Cloudy,170,2012-12-29 00:53:00
3:53 PM,77.0,66.0,69,29.91,10.0,SSE,11.5,-,N/A,,Mostly Cloudy,160,2012-12-29 01:53:00
4:41 PM,75.2,64.4,69,29.93,10.0,SSE,10.4,-,N/A,,Overcast,160,2012-12-29 02:41:00
4:53 PM,75.0,64.9,71,29.92,10.0,SE,9.2,-,N/A,,Overcast,140,2012-12-29 02:53:00
5:53 PM,75.0,64.9,71,29.94,10.0,SE,6.9,-,N/A,,Overcast,140,2012-12-29 03:53:00
6:53 PM,73.9,64.9,73,29.95,10.0,SSE,4.6,-,N/A,,Overcast,160,2012-12-29 04:53:00
7:53 PM,73.9,64.9,73,29.97,10.0,SSE,3.5,-,N/A,,Overcast,150,2012-12-29 05:53:00
8:53 PM,72.0,66.0,81,29.99,10.0,West,3.5,-,N/A,,Overcast,280,2012-12-29 06:53:00
9:38 PM,71.6,66.2,83,30.01,10.0,West,4.6,-,N/A,,Scattered Clouds,260,2012-12-29 07:38:00
9:53 PM,71.1,66.0,84,30.00,10.0,West,4.6,-,N/A,,Clear,280,2012-12-29 07:53:00
10:53 PM,69.1,64.9,87,30.00,10.0,West,4.6,-,N/A,,Partly Cloudy,280,2012-12-29 08:53:00
11:38 PM,69.8,64.4,83,30.01,10.0,West,4.6,-,N/A,,Mostly Cloudy,280,2012-12-29 09:38:00
11:53 PM,70.0,64.9,84,30.00,10.0,West,4.6,-,N/A,,Overcast,270,2012-12-29 09:53:00